Location: Asarope
(8.2500°N, 4.4833°E)
Time: 14:29:57
(UTC+00:00)

Cosmos 2219 Rocket - Pass Details

Date: 07 June 2020
Orbit: 828 x 846 km, 71.0° (Epoch: 07 July)

Event Time Altitude Azimuth Distance (km) Brightness Sun altitude
Exits shadow 02:41:48 22° 0° (N) 1,737 4.1 -36.0°
Drops below altitude 10° 02:43:42 10° 6° (N) 2,423 5.0 -35.6°
Sets 02:46:09 0° 10° (N) 3,355 5.9 -35.1°
